#timestamp,LO_Frequency,Hit,StdDev 
1552024815.8,286046998.5,N
1552024835.6,286046997.0,N
1552024855.5,286046999.5,N
1552024875.3,286046999.1,N
1552024895.1,286046997.8,N
1552024915.9,286046999.4,N
1552024935.7,286046998.8,N
1552024955.6,286047000.6,N
1552024975.4,286046998.1,N
1552024995.2,286046998.7,N
1552025015.1,286046998.6,N
1552025016.0,286046998.6,N
1552025035.8,286046996.9,N
1552025055.7,286046997.6,N
1552025075.5,286046997.2,N
1552025095.3,286046997.8,N
1552025115.2,286046995.2,Y
1552025135.0,286046996.6,P
1552025135.9,286046996.6,P
1552025155.7,286046998.2,N
1552025175.6,286046998.4,N
1552025195.4,286046997.0,Y
1552025215.3,286047002.5,P
1552025235.1,286047001.6,N
1552025255.8,286047004.3,N
1552025275.7,286047001.7,N
1552025295.5,286047002.0,N
1552025315.4,286046999.9,N
1552025335.2,286046998.3,N
1552025355.0,286046998.7,N
1552025355.9,286046998.7,N
1552025375.8,286046998.9,N
1552025395.6,286046999.5,N
1552025415.4,286046999.2,N
1552025435.3,286046998.4,N
1552025455.1,286047001.1,N
1552025475.9,286046998.7,N
1552025495.7,286047002.3,N
1552025515.5,286047002.8,N
1552025535.4,286047002.8,N
1552025555.2,286047002.5,N
1552025575.1,286047004.0,N
1552025576.0,286047004.0,N
1552025595.8,286047002.5,N
1552025615.6,286047001.9,N
1552025635.5,286047002.2,N
1552025655.3,286047000.0,N
1552025675.1,286047001.5,N
1552025695.9,286047002.0,N
1552025715.7,286047004.4,N
1552025735.6,286047004.4,N
1552025755.4,286047002.1,N
1552025775.2,286047002.3,N
1552025795.1,286047002.5,N
1552025796.0,286047002.5,N
1552025815.8,286047002.4,N
1552025835.7,286047002.6,N
1552025855.5,286047001.9,N
1552025875.3,286046999.8,N
1552025895.2,286046999.8,N
1552025915.9,286047001.3,N
1552025935.7,286047001.5,N
1552025955.6,286047002.2,N
1552025975.4,286047001.3,N
1552025995.3,286047005.5,Y
1552026015.1,286047002.9,P
1552026016.0,286047002.9,P
1552026035.8,286047005.9,P
1552026055.7,286047003.3,N
1552026075.5,286047003.0,N
1552026095.3,286047005.2,Y
1552026115.2,286047001.6,P
1552026135.0,286047002.2,N
1552026135.9,286047002.2,P
1552026155.8,286047001.7,N
1552026175.6,286047002.3,Y
1552026195.4,286046996.8,P
1552026215.3,286046996.9,N
1552026235.1,286046998.0,N
1552026255.9,286046999.6,N
1552026275.7,286046999.1,N
1552026295.5,286046996.5,N
1552026315.4,286046996.5,N
1552026335.2,286046998.5,N
1552026355.0,286046998.4,N
1552026356.0,286046998.4,N
1552026375.8,286046999.4,N
1552026395.6,286046999.2,N
1552026415.5,286046998.9,N
1552026435.3,286046999.1,N
1552026455.1,286046999.1,N
1552026475.9,286046996.9,N
1552026495.7,286046997.2,N
1552026515.6,286046996.8,N
1552026535.4,286046997.1,N
1552026555.2,286046997.0,N
1552026575.1,286046997.4,N
1552026576.0,286046997.4,N
1552026595.8,286046994.9,Y
1552026615.6,286046996.9,P
1552026635.5,286046997.3,P
1552026655.3,286046997.3,P
1552026675.2,286046997.1,Y
1552026695.9,286047001.2,P
1552026715.7,286047001.2,N
1552026735.6,286047001.1,N
1552026755.4,286046999.0,N
1552026775.2,286047000.7,N
1552026795.1,286046998.2,N
1552026796.0,286046998.2,N
1552026815.8,286046998.6,N
1552026835.7,286046999.0,N
1552026855.5,286046999.1,N
1552026875.3,286047003.8,N
1552026895.2,286047003.8,N
1552026915.0,286047003.3,N
1552026915.9,286047003.3,N
1552026935.8,286047005.4,N
1552026955.6,286047003.5,N
1552026975.4,286047003.4,N
1552026995.3,286047003.4,N
1552027015.1,286047005.4,N
1552027035.8,286047003.4,N
1552027055.7,286047003.9,N
1552027075.5,286047003.4,N
1552027095.4,286047005.9,N
1552027115.2,286047003.2,N
1552027135.0,286047005.7,N
1552027135.9,286047005.7,N
1552027155.8,286047003.2,N
1552027175.6,286047004.3,N
1552027195.5,286047003.4,N
1552027215.3,286047005.0,N
1552027235.1,286047003.3,N
1552027255.9,286047008.8,Y
1552027275.7,286047005.5,P
1552027295.5,286047004.0,N
1552027315.4,286046999.7,N
1552027335.2,286047000.2,N
1552027355.1,286047002.3,N
1552027356.0,286047002.3,N
1552027375.8,286047001.5,N
1552027395.6,286047001.5,N
1552027415.5,286047001.7,N
1552027435.3,286047001.8,N
1552027455.2,286047002.1,N
1552027475.9,286047002.0,N
1552027495.7,286047001.9,N
1552027515.6,286047002.3,N
1552027535.4,286047002.0,N
1552027555.2,286046999.8,N
1552027575.1,286047002.1,N
1552027576.0,286047002.1,N
1552027595.8,286047001.8,N
1552027615.7,286047004.1,Y
1552027635.5,286047000.2,P
1552027655.3,286047000.0,N
1552027675.2,286047002.6,N
1552027695.0,286046999.8,N
1552027695.9,286046999.8,N
1552027715.8,286047005.4,Y
1552027735.6,286047002.0,P
1552027755.4,286047004.2,P
1552027775.3,286047003.5,N
1552027795.1,286047004.0,N
1552027815.8,286047003.7,N
1552027835.7,286047001.4,N
1552027855.5,286047004.4,Y
1552027875.4,286046998.3,P
1552027895.2,286046998.3,N
1552027915.0,286046998.6,N
1552027915.9,286046998.6,N
1552027935.8,286046998.7,N
1552027955.6,286047001.1,N
1552027975.5,286046998.3,N
1552027995.3,286046998.3,N
1552028015.1,286046999.1,N
1552028035.9,286046998.8,N
1552028055.7,286046998.4,N
1552028075.5,286047000.5,N
1552028095.4,286047000.4,N
1552028115.2,286047000.9,N
1552028135.1,286046998.3,N
1552028136.0,286046998.3,N
1552028155.8,286047000.1,N
1552028175.6,286047001.2,N
1552028195.5,286046998.8,N
1552028215.3,286046999.5,N
1552028235.2,286046999.3,N
1552028255.9,286047001.2,N
1552028275.7,286046998.3,N
1552028295.6,286047002.4,N
1552028315.4,286047001.9,N
1552028335.2,286047001.4,N
1552028355.1,286047001.6,N
1552028356.0,286047001.6,N
1552028375.8,286047002.4,N
1552028395.7,286047002.3,N
